カタログに戻る

STARLINK-5007

運用中通信VLEO
NORAD 57365·PAYLOAD·🇺🇸 United States

打ち上げ Jul 16, 2023 から Cape Canaveral Space Force Station

Loading…

次のパス (今後24時間)

TLE

最新Source: CelesTrak SupGP

元期: Sep 15, 2026, 02:15 UTC

1 57365C 23099AP  26258.09423611 -.00022510  00000+0 -81531-3 0  2588
2 57365  42.9991 252.0328 0001364 261.5583 185.8847 15.27589397    16

AllMySatでSTARLINK-5007をリアルタイム追跡

Download on the App Store